User: anonymous   Login
Location: Unspecified
(0.0000°N, 0.0000°E)
Time: 19:30:22
(UTC+00:00)
Language:

PAKSAT 1R - Orbit

View from above orbital plane
View from above orbital plane
View from above satellite
View from above satellite

Ground track
Ground track

The orbit data is extracted from the following two-line orbital elements,

1 37779U 11042A   14354.64434654  .00000164  00000-0  00000+0 0  7172
2 37779 000.0337 193.6758 0004282 052.1823 113.2372 01.00272850 12315
Epoch (UTC): 20 December 2014 15:27:51
Eccentricity: 0.0004282
inclination: 0.0337°
perigee height: 35768 km
apogee height: 35804 km
right ascension of ascending node: 193.6758°
argument of perigee: 52.1823°
revolutions per day: 1.00272850
mean anomaly at epoch: 113.2372°
orbit number at epoch: 1231

The dashed part of the orbit path shows where the satellite is in the earth's shadow,  

DLR